Weather History for Waupaca, WI

Change the Weather History Date:

Saturday, November 30, 2013

  Actual Average Record
Temperature  
Mean Temperature 34 °F -  
Max Temperature 44 °F 37 °F 59 °F (1962)
Min Temperature 25 °F 20 °F -5 °F (1958)
Degree Days  
Heating Degree Days 30    
Moisture  
Dew Point 25 °F    
Average Humidity 67    
Maximum Humidity 82    
Minimum Humidity 48    
Precipitation  
Precipitation 0.00 in - - ()
Sea Level Pressure  
Sea Level Pressure 30.10 in    
Wind  
Wind Speed 5 mph (SSW)    
Max Wind Speed 10 mph    
Max Gust Speed -    
Visibility 10 miles    
Events      
Averages and records for this station are not official NWS values.
T = Trace of Precipitation, MM = Missing Value Source: NWS Daily Summary

Daily Weather History Graph

Daily Weather History Graph

Search for Another Location

Airport:

Trip Planner

Search our weather history database for the weather conditions in past years. The results will help you decide how hot, cold, wet, or windy it might be!

Date:

Astronomy

Nov. 30, 2013 Rise Set
Actual Time 7:11 AM CST 4:18 PM CST
Civil Twilight 6:38 AM CST 4:51 PM CST
Nautical Twilight 6:02 AM CST 5:27 PM CST
Astronomical Twilight 5:27 AM CST 6:02 PM CST
Moon 4:16 AM CST (11/30) 2:46 PM CST (11/30)
Length of Visible Light 10h 12m
Length of Day
9h 07m
Waning Crescent, 7% of the Moon is Illuminated
Nov 30
Waning Crescent
Dec 2
New
Dec 9
First Quarter
Dec 17
Full
Dec 25
Last Quarter

Hourly Weather History & Observations

Time (CST) Temp. Windchill Dew Point Humidity Pressure Visibility Wind Dir Wind Speed Gust Speed Precip Events Conditions
12:15 AM 25.9 °F 21.7 °F 19.4 °F 76% 30.28 in 10.0 mi SSE 3.5 mph - N/A   Clear
12:35 AM 26.6 °F 21.2 °F 19.8 °F 75% 30.28 in 10.0 mi SSE 4.6 mph - N/A   Clear
12:55 AM 28.2 °F 22.0 °F 20.3 °F 72% 30.27 in 10.0 mi South 5.8 mph - N/A   Clear
1:15 AM 29.1 °F 22.1 °F 20.3 °F 70% 30.27 in 10.0 mi South 6.9 mph - N/A   Clear
1:35 AM 29.1 °F 23.0 °F 20.3 °F 70% 30.26 in 10.0 mi South 5.8 mph - N/A   Clear
1:55 AM 29.1 °F 23.0 °F 20.3 °F 70% 30.26 in 10.0 mi South 5.8 mph - N/A   Mostly Cloudy
2:15 AM 29.3 °F 23.2 °F 20.5 °F 70% 30.25 in 10.0 mi South 5.8 mph - N/A   Overcast
2:35 AM 29.8 °F 23.0 °F 21.2 °F 70% 30.23 in 10.0 mi South 6.9 mph - N/A   Overcast
2:55 AM 30.2 °F 23.4 °F 21.2 °F 69% 30.22 in 10.0 mi South 6.9 mph - N/A   Overcast
3:15 AM 30.6 °F 23.1 °F 21.2 °F 68% 30.21 in 10.0 mi South 8.1 mph - N/A   Overcast
3:35 AM 30.9 °F 25.2 °F 21.6 °F 68% 30.20 in 10.0 mi South 5.8 mph - N/A   Overcast
3:55 AM 31.1 °F 25.4 °F 21.7 °F 68% 30.20 in 10.0 mi South 5.8 mph - N/A   Overcast
4:15 AM 31.1 °F 23.7 °F 21.9 °F 69% 30.18 in 10.0 mi South 8.1 mph - N/A   Overcast
4:35 AM 31.1 °F 24.5 °F 21.9 °F 69% 30.17 in 10.0 mi South 6.9 mph - N/A   Mostly Cloudy
4:55 AM 31.1 °F 25.4 °F 22.1 °F 69% 30.16 in 10.0 mi SSE 5.8 mph - N/A   Overcast
5:15 AM 31.1 °F 23.7 °F 22.5 °F 70% 30.16 in 10.0 mi South 8.1 mph - N/A   Mostly Cloudy
5:35 AM 31.1 °F 25.4 °F 22.3 °F 70% 30.15 in 10.0 mi South 5.8 mph - N/A   Mostly Cloudy
5:55 AM 31.1 °F 26.4 °F 22.6 °F 71% 30.15 in 10.0 mi South 4.6 mph - N/A   Scattered Clouds
6:15 AM 31.1 °F 25.4 °F 22.8 °F 71% 30.14 in 10.0 mi South 5.8 mph - N/A   Overcast
6:35 AM 31.5 °F 26.8 °F 23.0 °F 71% 30.13 in 10.0 mi South 4.6 mph - N/A   Overcast
6:55 AM 31.1 °F 24.5 °F 23.0 °F 72% 30.13 in 10.0 mi South 6.9 mph - N/A   Mostly Cloudy
7:15 AM 30.4 °F 23.6 °F 22.8 °F 73% 30.12 in 10.0 mi South 6.9 mph - N/A   Scattered Clouds
7:35 AM 29.8 °F 23.9 °F 22.8 °F 75% 30.12 in 10.0 mi South 5.8 mph - N/A   Clear
7:55 AM 30.2 °F 24.3 °F 23.0 °F 75% 30.12 in 10.0 mi South 5.8 mph - N/A   Clear
8:15 AM 31.5 °F 26.8 °F 23.5 °F 73% 30.12 in 10.0 mi South 4.6 mph - N/A   Clear
8:35 AM 32.0 °F 24.8 °F 23.9 °F 72% 30.10 in 10.0 mi South 8.1 mph - N/A   Clear
8:55 AM 32.5 °F 27.1 °F 24.1 °F 71% 30.10 in 10.0 mi SSW 5.8 mph - N/A   Clear
9:15 AM 35.6 °F 29.9 °F 24.6 °F 64% 30.10 in 10.0 mi SSW 6.9 mph - N/A   Clear
9:35 AM 36.5 °F 31.8 °F 25.0 °F 63% 30.10 in 10.0 mi SSW 5.8 mph - N/A   Clear
9:55 AM 37.2 °F 31.2 °F 25.0 °F 61% 30.10 in 10.0 mi SSW 8.1 mph - N/A   Clear
10:15 AM 38.5 °F 32.1 °F 25.2 °F 59% 30.09 in 10.0 mi SSW 9.2 mph - N/A   Clear
10:35 AM 39.2 °F 33.6 °F 25.7 °F 58% 30.08 in 10.0 mi SSW 8.1 mph - N/A   Clear
10:55 AM 40.8 °F 34.5 °F 25.7 °F 55% 30.07 in 10.0 mi WSW 10.4 mph - N/A   Clear
11:15 AM 40.5 °F 35.8 °F 25.5 °F 55% 30.06 in 10.0 mi SSW 6.9 mph - N/A   Clear
11:35 AM 40.8 °F 35.0 °F 25.7 °F 55% 30.05 in 10.0 mi SW 9.2 mph - N/A   Mostly Cloudy
11:55 AM 42.1 °F 37.7 °F 25.9 °F 53% 30.04 in 10.0 mi SSW 6.9 mph - N/A   Overcast
12:15 PM 42.1 °F 39.2 °F 25.7 °F 52% 30.03 in 10.0 mi SW 4.6 mph - N/A   Mostly Cloudy
12:35 PM 43.5 °F 40.1 °F 26.1 °F 50% 30.02 in 10.0 mi South 5.8 mph - N/A   Scattered Clouds
12:55 PM 43.7 °F 41.1 °F 26.1 °F 50% 30.01 in 10.0 mi SW 4.6 mph - N/A   Clear
1:15 PM 44.2 °F 41.0 °F 25.9 °F 49% 30.01 in 10.0 mi WSW 5.8 mph - N/A   Clear
1:35 PM 44.6 °F 43.1 °F 25.9 °F 48% 30.00 in 10.0 mi WSW 3.5 mph - N/A   Clear
1:55 PM 43.9 °F 41.3 °F 25.9 °F 49% 29.99 in 10.0 mi SW 4.6 mph - N/A   Clear
2:15 PM 43.7 °F - 26.1 °F 50% 29.99 in 10.0 mi Calm Calm - N/A   Clear
2:35 PM 43.2 °F - 26.4 °F 52% 30.00 in 10.0 mi Calm Calm - N/A   Clear
2:55 PM 43.0 °F 41.3 °F 26.4 °F 52% 30.00 in 10.0 mi WNW 3.5 mph - N/A   Clear
3:15 PM 42.3 °F 39.4 °F 26.6 °F 54% 30.00 in 10.0 mi NW 4.6 mph - N/A   Clear
3:35 PM 40.5 °F 38.4 °F 26.4 °F 57% 30.01 in 10.0 mi NNW 3.5 mph - N/A   Clear
3:55 PM 39.4 °F 36.1 °F 26.6 °F 60% 30.01 in 10.0 mi North 4.6 mph - N/A   Clear
4:15 PM 37.9 °F 35.5 °F 26.4 °F 63% 30.01 in 10.0 mi North 3.5 mph - N/A   Clear
4:35 PM 36.9 °F - 26.1 °F 65% 30.01 in 10.0 mi Calm Calm - N/A   Clear
4:55 PM 35.4 °F - 25.7 °F 68% 30.02 in 10.0 mi Calm Calm - N/A   Clear
5:15 PM 34.7 °F - 25.5 °F 69% 30.03 in 10.0 mi Calm Calm - N/A   Scattered Clouds
5:35 PM 33.6 °F - 25.7 °F 73% 30.03 in 10.0 mi Calm Calm - N/A   Mostly Cloudy
5:55 PM 33.1 °F - 25.9 °F 75% 30.04 in 10.0 mi Calm Calm - N/A   Overcast
6:15 PM 32.2 °F 28.9 °F 26.6 °F 80% 30.04 in 10.0 mi NW 3.5 mph - N/A   Overcast
6:35 PM 33.1 °F 28.7 °F 27.1 °F 79% 30.05 in 10.0 mi NW 4.6 mph - N/A   Overcast
6:55 PM 33.4 °F 30.4 °F 26.6 °F 76% 30.05 in 10.0 mi NW 3.5 mph - N/A   Overcast
7:15 PM 33.8 °F 30.8 °F 26.8 °F 75% 30.05 in 10.0 mi NW 3.5 mph - N/A   Overcast
7:35 PM 34.0 °F - 26.4 °F 74% 30.05 in 10.0 mi Calm Calm - N/A   Overcast
7:55 PM 34.9 °F - 26.2 °F 71% 30.05 in 10.0 mi Calm Calm - N/A   Overcast
8:15 PM 33.8 °F - 26.6 °F 75% 30.06 in 10.0 mi Calm Calm - N/A   Overcast
8:35 PM 34.7 °F - 26.2 °F 71% 30.05 in 10.0 mi Calm Calm - N/A   Overcast
8:55 PM 35.6 °F - 26.4 °F 69% 30.05 in 10.0 mi Calm Calm - N/A   Overcast
9:15 PM 34.5 °F - 26.1 °F 71% 30.06 in 10.0 mi Calm Calm - N/A   Overcast
9:35 PM 33.8 °F - 26.6 °F 75% 30.06 in 10.0 mi Calm Calm - N/A   Overcast
9:55 PM 34.7 °F - 26.4 °F 72% 30.06 in 10.0 mi Calm Calm - N/A   Overcast
10:15 PM 34.3 °F - 26.6 °F 73% 30.06 in 10.0 mi Calm Calm - N/A   Overcast
10:35 PM 34.9 °F - 26.4 °F 71% 30.06 in 10.0 mi Calm Calm - N/A   Overcast
10:55 PM 34.5 °F - 26.4 °F 72% 30.06 in 10.0 mi Calm Calm - N/A   Overcast
11:15 PM 33.3 °F - 26.8 °F 77% 30.07 in 10.0 mi Calm Calm - N/A   Mostly Cloudy
11:35 PM 32.0 °F - 27.0 °F 82% 30.07 in 10.0 mi Calm Calm - N/A   Clear
11:55 PM 32.7 °F - 26.6 °F 78% 30.07 in 10.0 mi Calm Calm - N/A   Clear